owner,sensor,date,latitude,longitude,vertical_datum,sea_water_temperature,qcFlag 
WAVCIS,ioos:station:WAVCIS:CSI03:1,2015-11-01T00:00:00Z,29.4412,-92.0613,10.0,-13.51,11144222 
WAVCIS,ioos:station:WAVCIS:CSI03:1,2015-11-01T01:00:00Z,29.4412,-92.0613,10.0,-13.38,11144222 
WAVCIS,ioos:station:WAVCIS:CSI03:1,2015-11-01T02:00:00Z,29.4412,-92.0613,10.0,-13.6,11144222 
WAVCIS,ioos:station:WAVCIS:CSI03:1,2015-11-01T03:00:00Z,29.4412,-92.0613,10.0,-13.9,11144222 
WAVCIS,ioos:station:WAVCIS:CSI03:1,2015-11-01T04:00:00Z,29.4412,-92.0613,10.0,-14.05,11144222 
WAVCIS,ioos:station:WAVCIS:CSI03:1,2015-11-01T05:00:00Z,29.4412,-92.0613,10.0,-14.06,11144222 
WAVCIS,ioos:station:WAVCIS:CSI03:1,2015-11-01T06:00:00Z,29.4412,-92.0613,10.0,-14.01,11144222 
WAVCIS,ioos:station:WAVCIS:CSI03:1,2015-11-01T07:00:00Z,29.4412,-92.0613,10.0,-13.86,11144222 
WAVCIS,ioos:station:WAVCIS:CSI03:1,2015-11-01T08:00:00Z,29.4412,-92.0613,10.0,-13.83,11144222 
WAVCIS,ioos:station:WAVCIS:CSI03:1,2015-11-01T09:00:00Z,29.4412,-92.0613,10.0,-13.81,11144222 
WAVCIS,ioos:station:WAVCIS:CSI03:1,2015-11-01T10:00:00Z,29.4412,-92.0613,10.0,-13.54,11144222 
WAVCIS,ioos:station:WAVCIS:CSI03:1,2015-11-01T11:00:00Z,29.4412,-92.0613,10.0,-13.57,11144222 
WAVCIS,ioos:station:WAVCIS:CSI03:1,2015-11-01T12:00:00Z,29.4412,-92.0613,10.0,-13.48,11144222 
WAVCIS,ioos:station:WAVCIS:CSI03:1,2015-11-01T13:00:00Z,29.4412,-92.0613,10.0,-13.46,11144222 
WAVCIS,ioos:station:WAVCIS:CSI03:1,2015-11-01T14:00:00Z,29.4412,-92.0613,10.0,-13.52,11144222 
WAVCIS,ioos:station:WAVCIS:CSI03:1,2015-11-01T15:00:00Z,29.4412,-92.0613,10.0,-13.62,11144222 
WAVCIS,ioos:station:WAVCIS:CSI03:1,2015-11-01T16:00:00Z,29.4412,-92.0613,10.0,-13.56,11144222 
WAVCIS,ioos:station:WAVCIS:CSI03:1,2015-11-01T17:00:00Z,29.4412,-92.0613,10.0,-13.39,11144222 
WAVCIS,ioos:station:WAVCIS:CSI03:1,2015-11-01T18:00:00Z,29.4412,-92.0613,10.0,-13.59,11144222 
WAVCIS,ioos:station:WAVCIS:CSI03:1,2015-11-01T19:00:00Z,29.4412,-92.0613,10.0,-13.82,11144222 
WAVCIS,ioos:station:WAVCIS:CSI03:1,2015-11-01T20:00:00Z,29.4412,-92.0613,10.0,-14.0,11144222 
WAVCIS,ioos:station:WAVCIS:CSI03:1,2015-11-01T21:00:00Z,29.4412,-92.0613,10.0,-14.23,11144222 
WAVCIS,ioos:station:WAVCIS:CSI03:1,2015-11-01T22:00:00Z,29.4412,-92.0613,10.0,-14.4,11144222 
WAVCIS,ioos:station:WAVCIS:CSI03:1,2015-11-01T23:00:00Z,29.4412,-92.0613,10.0,-14.7,11144222 
WAVCIS,ioos:station:WAVCIS:CSI03:1,2015-11-02T00:00:00Z,29.4412,-92.0613,10.0,-14.88,11144222 
WAVCIS,ioos:station:WAVCIS:CSI03:1,2015-11-02T01:00:00Z,29.4412,-92.0613,10.0,-15.04,11144222 
WAVCIS,ioos:station:WAVCIS:CSI03:1,2015-11-02T02:00:00Z,29.4412,-92.0613,10.0,-15.29,11144222 
WAVCIS,ioos:station:WAVCIS:CSI03:1,2015-11-02T03:00:00Z,29.4412,-92.0613,10.0,-15.52,11144222 
WAVCIS,ioos:station:WAVCIS:CSI03:1,2015-11-02T04:00:00Z,29.4412,-92.0613,10.0,-15.72,11144222 
WAVCIS,ioos:station:WAVCIS:CSI03:1,2015-11-02T05:00:00Z,29.4412,-92.0613,10.0,-15.75,11144222 
WAVCIS,ioos:station:WAVCIS:CSI03:1,2015-11-02T06:00:00Z,29.4412,-92.0613,10.0,-15.75,11144222 
WAVCIS,ioos:station:WAVCIS:CSI03:1,2015-11-02T07:00:00Z,29.4412,-92.0613,10.0,-15.93,11144222 
WAVCIS,ioos:station:WAVCIS:CSI03:1,2015-11-02T08:00:00Z,29.4412,-92.0613,10.0,-16.12,11144222 
WAVCIS,ioos:station:WAVCIS:CSI03:1,2015-11-02T09:00:00Z,29.4412,-92.0613,10.0,-16.1,11144222 
WAVCIS,ioos:station:WAVCIS:CSI03:1,2015-11-02T10:00:00Z,29.4412,-92.0613,10.0,-16.12,11144222 
WAVCIS,ioos:station:WAVCIS:CSI03:1,2015-11-02T11:00:00Z,29.4412,-92.0613,10.0,-16.14,11144222 
WAVCIS,ioos:station:WAVCIS:CSI03:1,2015-11-02T12:00:00Z,29.4412,-92.0613,10.0,-16.42,11144222 
WAVCIS,ioos:station:WAVCIS:CSI03:1,2015-11-02T13:00:00Z,29.4412,-92.0613,10.0,-16.38,11144222 
WAVCIS,ioos:station:WAVCIS:CSI03:1,2015-11-02T14:00:00Z,29.4412,-92.0613,10.0,-15.83,11144222 
WAVCIS,ioos:station:WAVCIS:CSI03:1,2015-11-02T15:00:00Z,29.4412,-92.0613,10.0,-15.61,11144222 
WAVCIS,ioos:station:WAVCIS:CSI03:1,2015-11-02T16:00:00Z,29.4412,-92.0613,10.0,-15.04,11144222 
WAVCIS,ioos:station:WAVCIS:CSI03:1,2015-11-02T17:00:00Z,29.4412,-92.0613,10.0,-14.93,11144222 
WAVCIS,ioos:station:WAVCIS:CSI03:1,2015-11-02T18:00:00Z,29.4412,-92.0613,10.0,-15.22,11144222 
WAVCIS,ioos:station:WAVCIS:CSI03:1,2015-11-02T19:00:00Z,29.4412,-92.0613,10.0,-15.39,11144222 
WAVCIS,ioos:station:WAVCIS:CSI03:1,2015-11-02T20:00:00Z,29.4412,-92.0613,10.0,-15.52,11144222 
WAVCIS,ioos:station:WAVCIS:CSI03:1,2015-11-02T21:00:00Z,29.4412,-92.0613,10.0,-15.51,11144222 
WAVCIS,ioos:station:WAVCIS:CSI03:1,2015-11-02T22:00:00Z,29.4412,-92.0613,10.0,-15.61,11144222 
WAVCIS,ioos:station:WAVCIS:CSI03:1,2015-11-02T23:00:00Z,29.4412,-92.0613,10.0,-15.68,11144222 
WAVCIS,ioos:station:WAVCIS:CSI03:1,2015-11-03T00:00:00Z,29.4412,-92.0613,10.0,-15.83,11144222 
WAVCIS,ioos:station:WAVCIS:CSI03:1,2015-11-03T01:00:00Z,29.4412,-92.0613,10.0,-15.94,11144222 
WAVCIS,ioos:station:WAVCIS:CSI03:1,2015-11-03T02:00:00Z,29.4412,-92.0613,10.0,-15.8,11144222 
WAVCIS,ioos:station:WAVCIS:CSI03:1,2015-11-03T03:00:00Z,29.4412,-92.0613,10.0,-15.6,11144222 
WAVCIS,ioos:station:WAVCIS:CSI03:1,2015-11-03T04:00:00Z,29.4412,-92.0613,10.0,-15.57,11144222 
WAVCIS,ioos:station:WAVCIS:CSI03:1,2015-11-03T05:00:00Z,29.4412,-92.0613,10.0,-15.36,11144222 
WAVCIS,ioos:station:WAVCIS:CSI03:1,2015-11-03T06:00:00Z,29.4412,-92.0613,10.0,-15.41,11144222 
WAVCIS,ioos:station:WAVCIS:CSI03:1,2015-11-03T07:00:00Z,29.4412,-92.0613,10.0,-15.46,11144222 
WAVCIS,ioos:station:WAVCIS:CSI03:1,2015-11-03T08:00:00Z,29.4412,-92.0613,10.0,-15.58,11144222 
WAVCIS,ioos:station:WAVCIS:CSI03:1,2015-11-03T09:00:00Z,29.4412,-92.0613,10.0,-15.78,11144222 
WAVCIS,ioos:station:WAVCIS:CSI03:1,2015-11-03T10:00:00Z,29.4412,-92.0613,10.0,-15.91,11144222 
WAVCIS,ioos:station:WAVCIS:CSI03:1,2015-11-03T11:00:00Z,29.4412,-92.0613,10.0,-16.09,11144222 
WAVCIS,ioos:station:WAVCIS:CSI03:1,2015-11-03T12:00:00Z,29.4412,-92.0613,10.0,-16.07,11144222 
WAVCIS,ioos:station:WAVCIS:CSI03:1,2015-11-03T13:00:00Z,29.4412,-92.0613,10.0,-16.38,11144222 
WAVCIS,ioos:station:WAVCIS:CSI03:1,2015-11-03T14:00:00Z,29.4412,-92.0613,10.0,-15.98,11144222 
WAVCIS,ioos:station:WAVCIS:CSI03:1,2015-11-03T15:00:00Z,29.4412,-92.0613,10.0,-16.47,11144222 
WAVCIS,ioos:station:WAVCIS:CSI03:1,2015-11-03T16:00:00Z,29.4412,-92.0613,10.0,-16.77,11144222 
WAVCIS,ioos:station:WAVCIS:CSI03:1,2015-11-03T17:00:00Z,29.4412,-92.0613,10.0,-16.93,11144222 
WAVCIS,ioos:station:WAVCIS:CSI03:1,2015-11-03T18:00:00Z,29.4412,-92.0613,10.0,-17.33,11144222 
WAVCIS,ioos:station:WAVCIS:CSI03:1,2015-11-03T19:00:00Z,29.4412,-92.0613,10.0,-17.12,11144222 
WAVCIS,ioos:station:WAVCIS:CSI03:1,2015-11-03T20:00:00Z,29.4412,-92.0613,10.0,-16.85,11144222 
WAVCIS,ioos:station:WAVCIS:CSI03:1,2015-11-03T21:00:00Z,29.4412,-92.0613,10.0,-17.15,11144222 
WAVCIS,ioos:station:WAVCIS:CSI03:1,2015-11-03T22:00:00Z,29.4412,-92.0613,10.0,-17.6,11144222 
WAVCIS,ioos:station:WAVCIS:CSI03:1,2015-11-03T23:00:00Z,29.4412,-92.0613,10.0,-17.91,11144222 
WAVCIS,ioos:station:WAVCIS:CSI03:1,2015-11-04T00:00:00Z,29.4412,-92.0613,10.0,-17.75,11144222 
WAVCIS,ioos:station:WAVCIS:CSI03:1,2015-11-04T01:00:00Z,29.4412,-92.0613,10.0,-17.86,11144222 
WAVCIS,ioos:station:WAVCIS:CSI03:1,2015-11-04T02:00:00Z,29.4412,-92.0613,10.0,-17.66,11144222 
WAVCIS,ioos:station:WAVCIS:CSI03:1,2015-11-04T03:00:00Z,29.4412,-92.0613,10.0,-18.08,11144222 
WAVCIS,ioos:station:WAVCIS:CSI03:1,2015-11-04T04:00:00Z,29.4412,-92.0613,10.0,-18.12,11144222 
WAVCIS,ioos:station:WAVCIS:CSI03:1,2015-11-04T05:00:00Z,29.4412,-92.0613,10.0,-18.25,11144222 
WAVCIS,ioos:station:WAVCIS:CSI03:1,2015-11-04T06:00:00Z,29.4412,-92.0613,10.0,-18.25,11144222 
WAVCIS,ioos:station:WAVCIS:CSI03:1,2015-11-04T07:00:00Z,29.4412,-92.0613,10.0,-18.12,11144222 
WAVCIS,ioos:station:WAVCIS:CSI03:1,2015-11-04T08:00:00Z,29.4412,-92.0613,10.0,-18.03,11144222 
WAVCIS,ioos:station:WAVCIS:CSI03:1,2015-11-04T09:00:00Z,29.4412,-92.0613,10.0,-18.15,11144222 
WAVCIS,ioos:station:WAVCIS:CSI03:1,2015-11-04T10:00:00Z,29.4412,-92.0613,10.0,-18.15,11144222 
WAVCIS,ioos:station:WAVCIS:CSI03:1,2015-11-04T11:00:00Z,29.4412,-92.0613,10.0,-18.21,11144222 
WAVCIS,ioos:station:WAVCIS:CSI03:1,2015-11-04T12:00:00Z,29.4412,-92.0613,10.0,-18.2,11144222 
WAVCIS,ioos:station:WAVCIS:CSI03:1,2015-11-04T13:00:00Z,29.4412,-92.0613,10.0,-17.57,11144222 
WAVCIS,ioos:station:WAVCIS:CSI03:1,2015-11-04T14:00:00Z,29.4412,-92.0613,10.0,-16.72,11144222 
WAVCIS,ioos:station:WAVCIS:CSI03:1,2015-11-04T15:00:00Z,29.4412,-92.0613,10.0,-16.25,11144222 
WAVCIS,ioos:station:WAVCIS:CSI03:1,2015-11-04T16:00:00Z,29.4412,-92.0613,10.0,-15.74,11144222 
WAVCIS,ioos:station:WAVCIS:CSI03:1,2015-11-04T17:00:00Z,29.4412,-92.0613,10.0,-15.44,11144222 
WAVCIS,ioos:station:WAVCIS:CSI03:1,2015-11-04T18:00:00Z,29.4412,-92.0613,10.0,-14.96,11144222 
WAVCIS,ioos:station:WAVCIS:CSI03:1,2015-11-04T19:00:00Z,29.4412,-92.0613,10.0,-14.66,11144222 
WAVCIS,ioos:station:WAVCIS:CSI03:1,2015-11-04T20:00:00Z,29.4412,-92.0613,10.0,-14.83,11144222 
WAVCIS,ioos:station:WAVCIS:CSI03:1,2015-11-04T21:00:00Z,29.4412,-92.0613,10.0,-14.82,11144222 
WAVCIS,ioos:station:WAVCIS:CSI03:1,2015-11-04T22:00:00Z,29.4412,-92.0613,10.0,-14.25,11144222 
WAVCIS,ioos:station:WAVCIS:CSI03:1,2015-11-04T23:00:00Z,29.4412,-92.0613,10.0,-13.7,11144222 
WAVCIS,ioos:station:WAVCIS:CSI03:1,2015-11-05T00:00:00Z,29.4412,-92.0613,10.0,-13.06,11144222 
WAVCIS,ioos:station:WAVCIS:CSI03:1,2015-11-05T01:00:00Z,29.4412,-92.0613,10.0,-12.62,11144222 
WAVCIS,ioos:station:WAVCIS:CSI03:1,2015-11-05T02:00:00Z,29.4412,-92.0613,10.0,-12.48,11144222 
WAVCIS,ioos:station:WAVCIS:CSI03:1,2015-11-05T03:00:00Z,29.4412,-92.0613,10.0,-12.54,11144222 
WAVCIS,ioos:station:WAVCIS:CSI03:1,2015-11-05T04:00:00Z,29.4412,-92.0613,10.0,-12.73,11144222 
WAVCIS,ioos:station:WAVCIS:CSI03:1,2015-11-05T05:00:00Z,29.4412,-92.0613,10.0,-12.75,11144222 
WAVCIS,ioos:station:WAVCIS:CSI03:1,2015-11-05T06:00:00Z,29.4412,-92.0613,10.0,-12.73,11144222 
WAVCIS,ioos:station:WAVCIS:CSI03:1,2015-11-05T07:00:00Z,29.4412,-92.0613,10.0,-12.5,11144222 
WAVCIS,ioos:station:WAVCIS:CSI03:1,2015-11-05T08:00:00Z,29.4412,-92.0613,10.0,-12.52,11144222 
WAVCIS,ioos:station:WAVCIS:CSI03:1,2015-11-05T09:00:00Z,29.4412,-92.0613,10.0,-12.54,11144222 
WAVCIS,ioos:station:WAVCIS:CSI03:1,2015-11-05T10:00:00Z,29.4412,-92.0613,10.0,-12.54,11144222 
WAVCIS,ioos:station:WAVCIS:CSI03:1,2015-11-05T11:00:00Z,29.4412,-92.0613,10.0,-12.54,11144222 
WAVCIS,ioos:station:WAVCIS:CSI03:1,2015-11-05T12:00:00Z,29.4412,-92.0613,10.0,-12.67,11144222 
WAVCIS,ioos:station:WAVCIS:CSI03:1,2015-11-05T13:00:00Z,29.4412,-92.0613,10.0,-12.8,11144222 
WAVCIS,ioos:station:WAVCIS:CSI03:1,2015-11-05T14:00:00Z,29.4412,-92.0613,10.0,-12.9,11144222 
WAVCIS,ioos:station:WAVCIS:CSI03:1,2015-11-05T15:00:00Z,29.4412,-92.0613,10.0,-13.1,11144222 
WAVCIS,ioos:station:WAVCIS:CSI03:1,2015-11-05T16:00:00Z,29.4412,-92.0613,10.0,-12.82,11144222 
WAVCIS,ioos:station:WAVCIS:CSI03:1,2015-11-05T17:00:00Z,29.4412,-92.0613,10.0,-12.8,11144222 
WAVCIS,ioos:station:WAVCIS:CSI03:1,2015-11-05T18:00:00Z,29.4412,-92.0613,10.0,-12.46,11144222 
WAVCIS,ioos:station:WAVCIS:CSI03:1,2015-11-05T19:00:00Z,29.4412,-92.0613,10.0,-12.42,11144222 
WAVCIS,ioos:station:WAVCIS:CSI03:1,2015-11-05T20:00:00Z,29.4412,-92.0613,10.0,-12.25,11144222 
WAVCIS,ioos:station:WAVCIS:CSI03:1,2015-11-05T21:00:00Z,29.4412,-92.0613,10.0,-12.22,11144222 
WAVCIS,ioos:station:WAVCIS:CSI03:1,2015-11-05T22:00:00Z,29.4412,-92.0613,10.0,-11.94,11144222 
WAVCIS,ioos:station:WAVCIS:CSI03:1,2015-11-05T23:00:00Z,29.4412,-92.0613,10.0,-12.03,11144222 
WAVCIS,ioos:station:WAVCIS:CSI03:1,2015-11-06T00:00:00Z,29.4412,-92.0613,10.0,-11.62,11144222 
WAVCIS,ioos:station:WAVCIS:CSI03:1,2015-11-06T01:00:00Z,29.4412,-92.0613,10.0,-11.87,11144222 
WAVCIS,ioos:station:WAVCIS:CSI03:1,2015-11-06T02:00:00Z,29.4412,-92.0613,10.0,-12.31,11144222 
WAVCIS,ioos:station:WAVCIS:CSI03:1,2015-11-06T03:00:00Z,29.4412,-92.0613,10.0,-12.86,11144222 
WAVCIS,ioos:station:WAVCIS:CSI03:1,2015-11-06T04:00:00Z,29.4412,-92.0613,10.0,-13.14,11144222 
WAVCIS,ioos:station:WAVCIS:CSI03:1,2015-11-06T05:00:00Z,29.4412,-92.0613,10.0,-13.5,11144222 
WAVCIS,ioos:station:WAVCIS:CSI03:1,2015-11-06T06:00:00Z,29.4412,-92.0613,10.0,-13.55,11144222 
WAVCIS,ioos:station:WAVCIS:CSI03:1,2015-11-06T07:00:00Z,29.4412,-92.0613,10.0,-13.73,11144222 
WAVCIS,ioos:station:WAVCIS:CSI03:1,2015-11-06T08:00:00Z,29.4412,-92.0613,10.0,-13.82,11144222 
WAVCIS,ioos:station:WAVCIS:CSI03:1,2015-11-06T09:00:00Z,29.4412,-92.0613,10.0,-13.99,11144222 
WAVCIS,ioos:station:WAVCIS:CSI03:1,2015-11-06T10:00:00Z,29.4412,-92.0613,10.0,-14.36,11144222 
WAVCIS,ioos:station:WAVCIS:CSI03:1,2015-11-06T11:00:00Z,29.4412,-92.0613,10.0,-14.53,11144222 
WAVCIS,ioos:station:WAVCIS:CSI03:1,2015-11-06T12:00:00Z,29.4412,-92.0613,10.0,-14.72,11144222 
WAVCIS,ioos:station:WAVCIS:CSI03:1,2015-11-06T13:00:00Z,29.4412,-92.0613,10.0,-14.96,11144222 
WAVCIS,ioos:station:WAVCIS:CSI03:1,2015-11-06T14:00:00Z,29.4412,-92.0613,10.0,-15.07,11144222 
WAVCIS,ioos:station:WAVCIS:CSI03:1,2015-11-06T15:00:00Z,29.4412,-92.0613,10.0,-15.15,11144222 
WAVCIS,ioos:station:WAVCIS:CSI03:1,2015-11-06T16:00:00Z,29.4412,-92.0613,10.0,-15.25,11144222 
WAVCIS,ioos:station:WAVCIS:CSI03:1,2015-11-06T17:00:00Z,29.4412,-92.0613,10.0,-15.47,11144222 
WAVCIS,ioos:station:WAVCIS:CSI03:1,2015-11-06T19:00:00Z,29.4412,-92.0613,10.0,-15.65,11144222 
WAVCIS,ioos:station:WAVCIS:CSI03:1,2015-11-06T20:00:00Z,29.4412,-92.0613,10.0,-15.34,11144222 
WAVCIS,ioos:station:WAVCIS:CSI03:1,2015-11-06T21:00:00Z,29.4412,-92.0613,10.0,-15.23,11144222 
WAVCIS,ioos:station:WAVCIS:CSI03:1,2015-11-06T22:00:00Z,29.4412,-92.0613,10.0,-15.42,11144222 
WAVCIS,ioos:station:WAVCIS:CSI03:1,2015-11-06T23:00:00Z,29.4412,-92.0613,10.0,-15.23,11144222 
WAVCIS,ioos:station:WAVCIS:CSI03:1,2015-11-07T00:00:00Z,29.4412,-92.0613,10.0,-14.69,11144222 
WAVCIS,ioos:station:WAVCIS:CSI03:1,2015-11-07T01:00:00Z,29.4412,-92.0613,10.0,-14.3,11144222 
WAVCIS,ioos:station:WAVCIS:CSI03:1,2015-11-07T02:00:00Z,29.4412,-92.0613,10.0,-13.69,11144222 
WAVCIS,ioos:station:WAVCIS:CSI03:1,2015-11-07T03:00:00Z,29.4412,-92.0613,10.0,-13.68,11144222 
WAVCIS,ioos:station:WAVCIS:CSI03:1,2015-11-07T04:00:00Z,29.4412,-92.0613,10.0,-14.23,11144222 
WAVCIS,ioos:station:WAVCIS:CSI03:1,2015-11-07T05:00:00Z,29.4412,-92.0613,10.0,-14.62,11144222 
WAVCIS,ioos:station:WAVCIS:CSI03:1,2015-11-07T06:00:00Z,29.4412,-92.0613,10.0,-15.07,11144222 
WAVCIS,ioos:station:WAVCIS:CSI03:1,2015-11-07T07:00:00Z,29.4412,-92.0613,10.0,-15.61,11144222 
WAVCIS,ioos:station:WAVCIS:CSI03:1,2015-11-07T08:00:00Z,29.4412,-92.0613,10.0,-15.05,11144222 
WAVCIS,ioos:station:WAVCIS:CSI03:1,2015-11-07T09:00:00Z,29.4412,-92.0613,10.0,-14.86,11144222 
WAVCIS,ioos:station:WAVCIS:CSI03:1,2015-11-07T10:00:00Z,29.4412,-92.0613,10.0,-14.79,11144222 
WAVCIS,ioos:station:WAVCIS:CSI03:1,2015-11-07T11:00:00Z,29.4412,-92.0613,10.0,-14.88,11144222 
WAVCIS,ioos:station:WAVCIS:CSI03:1,2015-11-07T12:00:00Z,29.4412,-92.0613,10.0,-15.23,11144222 
WAVCIS,ioos:station:WAVCIS:CSI03:1,2015-11-07T13:00:00Z,29.4412,-92.0613,10.0,-15.22,11144222 
WAVCIS,ioos:station:WAVCIS:CSI03:1,2015-11-07T14:00:00Z,29.4412,-92.0613,10.0,-15.04,11144222 
WAVCIS,ioos:station:WAVCIS:CSI03:1,2015-11-07T15:00:00Z,29.4412,-92.0613,10.0,-14.9,11144222 
WAVCIS,ioos:station:WAVCIS:CSI03:1,2015-11-07T16:00:00Z,29.4412,-92.0613,10.0,-14.72,11144222 
WAVCIS,ioos:station:WAVCIS:CSI03:1,2015-11-07T17:00:00Z,29.4412,-92.0613,10.0,-14.68,11144222 
WAVCIS,ioos:station:WAVCIS:CSI03:1,2015-11-07T18:00:00Z,29.4412,-92.0613,10.0,-14.49,11144222 
WAVCIS,ioos:station:WAVCIS:CSI03:1,2015-11-07T19:00:00Z,29.4412,-92.0613,10.0,-14.09,11144222 
WAVCIS,ioos:station:WAVCIS:CSI03:1,2015-11-07T20:00:00Z,29.4412,-92.0613,10.0,-14.12,11144222 
WAVCIS,ioos:station:WAVCIS:CSI03:1,2015-11-07T21:00:00Z,29.4412,-92.0613,10.0,-14.02,11144222 
WAVCIS,ioos:station:WAVCIS:CSI03:1,2015-11-07T22:00:00Z,29.4412,-92.0613,10.0,-14.47,11144222 
WAVCIS,ioos:station:WAVCIS:CSI03:1,2015-11-07T23:00:00Z,29.4412,-92.0613,10.0,-14.65,11144222 
WAVCIS,ioos:station:WAVCIS:CSI03:1,2015-11-08T00:00:00Z,29.4412,-92.0613,10.0,-14.12,11144222 
WAVCIS,ioos:station:WAVCIS:CSI03:1,2015-11-08T01:00:00Z,29.4412,-92.0613,10.0,-13.63,11144222 
WAVCIS,ioos:station:WAVCIS:CSI03:1,2015-11-08T02:00:00Z,29.4412,-92.0613,10.0,-13.2,11144222 
WAVCIS,ioos:station:WAVCIS:CSI03:1,2015-11-08T03:00:00Z,29.4412,-92.0613,10.0,-13.22,11144222 
WAVCIS,ioos:station:WAVCIS:CSI03:1,2015-11-08T04:00:00Z,29.4412,-92.0613,10.0,-13.24,11144222 
WAVCIS,ioos:station:WAVCIS:CSI03:1,2015-11-08T05:00:00Z,29.4412,-92.0613,10.0,-13.23,11144222 
WAVCIS,ioos:station:WAVCIS:CSI03:1,2015-11-08T06:00:00Z,29.4412,-92.0613,10.0,-13.18,11144222 
WAVCIS,ioos:station:WAVCIS:CSI03:1,2015-11-08T07:00:00Z,29.4412,-92.0613,10.0,-13.45,11144222 
WAVCIS,ioos:station:WAVCIS:CSI03:1,2015-11-08T08:00:00Z,29.4412,-92.0613,10.0,-14.17,11144222 
WAVCIS,ioos:station:WAVCIS:CSI03:1,2015-11-08T09:00:00Z,29.4412,-92.0613,10.0,-14.7,11144222 
WAVCIS,ioos:station:WAVCIS:CSI03:1,2015-11-08T10:00:00Z,29.4412,-92.0613,10.0,-14.93,11144222 
WAVCIS,ioos:station:WAVCIS:CSI03:1,2015-11-08T11:00:00Z,29.4412,-92.0613,10.0,-14.58,11144222 
WAVCIS,ioos:station:WAVCIS:CSI03:1,2015-11-08T12:00:00Z,29.4412,-92.0613,10.0,-14.56,11144222 
WAVCIS,ioos:station:WAVCIS:CSI03:1,2015-11-08T13:00:00Z,29.4412,-92.0613,10.0,-14.34,11144222 
WAVCIS,ioos:station:WAVCIS:CSI03:1,2015-11-08T14:00:00Z,29.4412,-92.0613,10.0,-14.2,11144222 
WAVCIS,ioos:station:WAVCIS:CSI03:1,2015-11-08T15:00:00Z,29.4412,-92.0613,10.0,-14.38,11144222 
WAVCIS,ioos:station:WAVCIS:CSI03:1,2015-11-08T16:00:00Z,29.4412,-92.0613,10.0,-14.41,11144222 
WAVCIS,ioos:station:WAVCIS:CSI03:1,2015-11-08T17:00:00Z,29.4412,-92.0613,10.0,-15.0,11144222 
WAVCIS,ioos:station:WAVCIS:CSI03:1,2015-11-08T18:00:00Z,29.4412,-92.0613,10.0,-15.07,11144222 
WAVCIS,ioos:station:WAVCIS:CSI03:1,2015-11-08T19:00:00Z,29.4412,-92.0613,10.0,-15.22,11144222 
WAVCIS,ioos:station:WAVCIS:CSI03:1,2015-11-08T20:00:00Z,29.4412,-92.0613,10.0,-15.27,11144222 
WAVCIS,ioos:station:WAVCIS:CSI03:1,2015-11-08T21:00:00Z,29.4412,-92.0613,10.0,-15.42,11144222 
WAVCIS,ioos:station:WAVCIS:CSI03:1,2015-11-08T22:00:00Z,29.4412,-92.0613,10.0,-15.83,11144222 
WAVCIS,ioos:station:WAVCIS:CSI03:1,2015-11-08T23:00:00Z,29.4412,-92.0613,10.0,-15.97,11144222 
WAVCIS,ioos:station:WAVCIS:CSI03:1,2015-11-09T00:00:00Z,29.4412,-92.0613,10.0,-15.95,11144222 
WAVCIS,ioos:station:WAVCIS:CSI03:1,2015-11-09T01:00:00Z,29.4412,-92.0613,10.0,-15.79,11144222 
WAVCIS,ioos:station:WAVCIS:CSI03:1,2015-11-09T02:00:00Z,29.4412,-92.0613,10.0,-15.85,11144222 
WAVCIS,ioos:station:WAVCIS:CSI03:1,2015-11-09T03:00:00Z,29.4412,-92.0613,10.0,-15.86,11144222 
WAVCIS,ioos:station:WAVCIS:CSI03:1,2015-11-09T04:00:00Z,29.4412,-92.0613,10.0,-16.14,11144222 
WAVCIS,ioos:station:WAVCIS:CSI03:1,2015-11-09T05:00:00Z,29.4412,-92.0613,10.0,-16.23,11144222 
WAVCIS,ioos:station:WAVCIS:CSI03:1,2015-11-09T06:00:00Z,29.4412,-92.0613,10.0,-16.42,11144222 
WAVCIS,ioos:station:WAVCIS:CSI03:1,2015-11-09T07:00:00Z,29.4412,-92.0613,10.0,-16.79,11144222 
WAVCIS,ioos:station:WAVCIS:CSI03:1,2015-11-09T08:00:00Z,29.4412,-92.0613,10.0,-17.04,11144222 
WAVCIS,ioos:station:WAVCIS:CSI03:1,2015-11-09T09:00:00Z,29.4412,-92.0613,10.0,-17.7,11144222 
WAVCIS,ioos:station:WAVCIS:CSI03:1,2015-11-09T10:00:00Z,29.4412,-92.0613,10.0,-17.52,11144222 
WAVCIS,ioos:station:WAVCIS:CSI03:1,2015-11-09T11:00:00Z,29.4412,-92.0613,10.0,-17.24,11144222 
WAVCIS,ioos:station:WAVCIS:CSI03:1,2015-11-09T12:00:00Z,29.4412,-92.0613,10.0,-17.28,11144222 
WAVCIS,ioos:station:WAVCIS:CSI03:1,2015-11-09T13:00:00Z,29.4412,-92.0613,10.0,-17.14,11144222 
WAVCIS,ioos:station:WAVCIS:CSI03:1,2015-11-09T14:00:00Z,29.4412,-92.0613,10.0,-17.48,11144222 
WAVCIS,ioos:station:WAVCIS:CSI03:1,2015-11-09T15:00:00Z,29.4412,-92.0613,10.0,-17.5,11144222 
WAVCIS,ioos:station:WAVCIS:CSI03:1,2015-11-09T16:00:00Z,29.4412,-92.0613,10.0,-17.28,11144222 
WAVCIS,ioos:station:WAVCIS:CSI03:1,2015-11-09T17:00:00Z,29.4412,-92.0613,10.0,-17.74,11144222 
WAVCIS,ioos:station:WAVCIS:CSI03:1,2015-11-09T18:00:00Z,29.4412,-92.0613,10.0,-17.41,11144222 
WAVCIS,ioos:station:WAVCIS:CSI03:1,2015-11-09T19:00:00Z,29.4412,-92.0613,10.0,-17.17,11144222 
WAVCIS,ioos:station:WAVCIS:CSI03:1,2015-11-09T20:00:00Z,29.4412,-92.0613,10.0,-17.0,11144222 
WAVCIS,ioos:station:WAVCIS:CSI03:1,2015-11-09T21:00:00Z,29.4412,-92.0613,10.0,-16.9,11144222 
WAVCIS,ioos:station:WAVCIS:CSI03:1,2015-11-09T22:00:00Z,29.4412,-92.0613,10.0,-16.34,11144222 
WAVCIS,ioos:station:WAVCIS:CSI03:1,2015-11-09T23:00:00Z,29.4412,-92.0613,10.0,-17.03,11144222 
WAVCIS,ioos:station:WAVCIS:CSI03:1,2015-11-10T00:00:00Z,29.4412,-92.0613,10.0,-17.77,11144222 
WAVCIS,ioos:station:WAVCIS:CSI03:1,2015-11-10T01:00:00Z,29.4412,-92.0613,10.0,-18.18,11144222 
WAVCIS,ioos:station:WAVCIS:CSI03:1,2015-11-10T02:00:00Z,29.4412,-92.0613,10.0,-18.66,11144222 
WAVCIS,ioos:station:WAVCIS:CSI03:1,2015-11-10T03:00:00Z,29.4412,-92.0613,10.0,-19.21,11144222 
WAVCIS,ioos:station:WAVCIS:CSI03:1,2015-11-10T04:00:00Z,29.4412,-92.0613,10.0,-19.22,11144222 
WAVCIS,ioos:station:WAVCIS:CSI03:1,2015-11-10T05:00:00Z,29.4412,-92.0613,10.0,-19.43,11144222 
WAVCIS,ioos:station:WAVCIS:CSI03:1,2015-11-10T06:00:00Z,29.4412,-92.0613,10.0,-19.23,11144222 
WAVCIS,ioos:station:WAVCIS:CSI03:1,2015-11-10T07:00:00Z,29.4412,-92.0613,10.0,-18.96,11144222 
WAVCIS,ioos:station:WAVCIS:CSI03:1,2015-11-10T08:00:00Z,29.4412,-92.0613,10.0,-18.83,11144222 
WAVCIS,ioos:station:WAVCIS:CSI03:1,2015-11-10T09:00:00Z,29.4412,-92.0613,10.0,-18.55,11144222 
WAVCIS,ioos:station:WAVCIS:CSI03:1,2015-11-10T10:00:00Z,29.4412,-92.0613,10.0,-18.02,11144222 
WAVCIS,ioos:station:WAVCIS:CSI03:1,2015-11-10T11:00:00Z,29.4412,-92.0613,10.0,-17.77,11144222 
WAVCIS,ioos:station:WAVCIS:CSI03:1,2015-11-10T12:00:00Z,29.4412,-92.0613,10.0,-18.11,11144222 
WAVCIS,ioos:station:WAVCIS:CSI03:1,2015-11-10T13:00:00Z,29.4412,-92.0613,10.0,-18.41,11144222 
WAVCIS,ioos:station:WAVCIS:CSI03:1,2015-11-10T14:00:00Z,29.4412,-92.0613,10.0,-18.59,11144222 
WAVCIS,ioos:station:WAVCIS:CSI03:1,2015-11-10T15:00:00Z,29.4412,-92.0613,10.0,-18.81,11144222 
WAVCIS,ioos:station:WAVCIS:CSI03:1,2015-11-10T16:00:00Z,29.4412,-92.0613,10.0,-19.27,11144222 
WAVCIS,ioos:station:WAVCIS:CSI03:1,2015-11-10T17:00:00Z,29.4412,-92.0613,10.0,-18.76,11144222 
WAVCIS,ioos:station:WAVCIS:CSI03:1,2015-11-10T18:00:00Z,29.4412,-92.0613,10.0,-18.19,11144222 
WAVCIS,ioos:station:WAVCIS:CSI03:1,2015-11-10T19:00:00Z,29.4412,-92.0613,10.0,-17.8,11144222 
WAVCIS,ioos:station:WAVCIS:CSI03:1,2015-11-10T20:00:00Z,29.4412,-92.0613,10.0,-17.08,11144222 
WAVCIS,ioos:station:WAVCIS:CSI03:1,2015-11-10T21:00:00Z,29.4412,-92.0613,10.0,-16.55,11144222 
WAVCIS,ioos:station:WAVCIS:CSI03:1,2015-11-10T22:00:00Z,29.4412,-92.0613,10.0,-16.37,11144222 
WAVCIS,ioos:station:WAVCIS:CSI03:1,2015-11-10T23:00:00Z,29.4412,-92.0613,10.0,-16.25,11144222 
WAVCIS,ioos:station:WAVCIS:CSI03:1,2015-11-11T00:00:00Z,29.4412,-92.0613,10.0,-16.7,11144222 
WAVCIS,ioos:station:WAVCIS:CSI03:1,2015-11-11T01:00:00Z,29.4412,-92.0613,10.0,-16.69,11144222 
WAVCIS,ioos:station:WAVCIS:CSI03:1,2015-11-11T02:00:00Z,29.4412,-92.0613,10.0,-16.7,11144222 
WAVCIS,ioos:station:WAVCIS:CSI03:1,2015-11-11T03:00:00Z,29.4412,-92.0613,10.0,-16.51,11144222 
WAVCIS,ioos:station:WAVCIS:CSI03:1,2015-11-11T04:00:00Z,29.4412,-92.0613,10.0,-17.04,11144222 
WAVCIS,ioos:station:WAVCIS:CSI03:1,2015-11-11T05:00:00Z,29.4412,-92.0613,10.0,-17.2,11144222 
WAVCIS,ioos:station:WAVCIS:CSI03:1,2015-11-11T06:00:00Z,29.4412,-92.0613,10.0,-17.04,11144222 
WAVCIS,ioos:station:WAVCIS:CSI03:1,2015-11-11T07:00:00Z,29.4412,-92.0613,10.0,-16.78,11144222 
WAVCIS,ioos:station:WAVCIS:CSI03:1,2015-11-11T08:00:00Z,29.4412,-92.0613,10.0,-16.41,11144222 
WAVCIS,ioos:station:WAVCIS:CSI03:1,2015-11-11T09:00:00Z,29.4412,-92.0613,10.0,-16.25,11144222 
WAVCIS,ioos:station:WAVCIS:CSI03:1,2015-11-11T10:00:00Z,29.4412,-92.0613,10.0,-16.05,11144222 
WAVCIS,ioos:station:WAVCIS:CSI03:1,2015-11-11T11:00:00Z,29.4412,-92.0613,10.0,-15.8,11144222 
WAVCIS,ioos:station:WAVCIS:CSI03:1,2015-11-11T12:00:00Z,29.4412,-92.0613,10.0,-15.84,11144222 